Theta_e
314 307 305 304 307 308 310 312 314 316 316 316 316 316 314 313 314 317 319 324 327 323 320 321 322 322 323 326 333 335 337 337 336 336 337 338 338 339 340 341 341 342 342 346 348 349 350 351 352 354 354 355 357 359 360 361 362 363 361 361 361 363 364 361 361 360 358 356 359 361 359 357 360 362 362 363 363 361 364 367 370 370 369 369 367 367
312 305 306 308 309 310 311 312 314 315 316 314 314 314 313 314 313 317 318 325 328 321 319 322 321 322 324 326 331 336 335 334 334 336 337 338 339 339 340 340 342 344 345 346 347 348 349 350 351 353 353 354 354 357 359 360 362 363 363 362 362 362 364 363 361 360 360 361 360 360 359 357 356 358 356 356 360 360 363 367 371 371 370 370 367 366
305 303 307 310 311 312 312 312 313 313 314 314 313 313 312 313 316 319 322 326 327 323 318 322 321 321 324 326 332 334 335 336 336 337 338 339 339 340 340 341 342 343 344 345 346 347 347 348 350 352 353 354 355 357 359 362 362 363 363 363 364 361 362 363 363 362 361 363 364 361 360 359 354 356 358 358 359 363 361 367 372 372 371 370 368 368
301 305 309 312 311 310 310 311 311 312 313 313 312 311 310 314 313 311 320 323 325 323 318 320 318 321 326 328 328 333 335 336 338 338 338 340 341 340 340 342 342 342 344 344 346 345 345 347 349 351 353 354 355 356 358 360 361 362 363 364 364 364 364 364 364 364 365 366 368 368 365 362 358 356 359 361 363 365 367 367 371 370 369 371 365 364
304 308 311 311 311 310 309 310 310 309 309 312 313 312 312 313 314 315 316 321 324 325 324 321 319 319 322 321 323 330 335 334 336 337 338 340 342 343 343 343 344 343 345 345 345 346 346 346 347 350 352 354 354 355 357 359 360 362 364 366 367 366 366 366 366 367 367 367 367 368 365 363 361 360 359 360 358 359 361 360 363 364 366 365 363 362
307 310 311 309 309 309 308 307 308 309 308 311 314 314 314 315 314 317 317 317 316 316 322 318 310 311 319 320 321 325 330 332 335 336 337 339 341 342 342 343 344 345 347 348 346 346 346 346 347 349 351 353 353 354 356 359 360 363 364 367 368 367 367 366 367 369 367 365 362 359 357 355 354 353 354 353 354 355 357 356 357 364 363 362 363 363
308 311 309 308 308 307 307 307 309 310 308 308 311 316 315 315 316 316 316 316 311 309 317 321 309 307 316 316 320 324 325 330 335 335 337 339 341 341 342 343 343 343 345 348 348 348 345 346 347 349 351 352 351 354 357 358 361 364 365 368 369 368 367 369 369 370 369 365 363 361 358 357 355 354 356 359 359 356 357 359 359 360 362 363 362 361
310 309 308 308 307 306 305 305 309 310 308 308 316 316 316 314 313 314 316 315 313 317 318 319 316 309 308 314 320 324 324 327 333 335 336 337 341 340 342 342 344 344 345 347 348 348 347 347 348 348 351 353 351 354 356 358 360 363 366 368 369 369 368 370 371 371 370 366 364 362 360 358 357 356 356 360 361 361 360 358 359 359 359 362 362 361
309 306 306 306 306 305 304 307 310 311 308 311 316 317 314 314 314 313 314 313 314 313 310 314 317 310 309 315 326 325 322 326 330 333 336 337 339 341 342 341 343 345 345 346 347 348 348 348 348 350 352 354 354 353 355 358 360 363 366 368 369 369 370 370 371 371 371 369 366 364 360 358 359 360 359 359 360 359 360 359 359 360 360 361 362 361
310 310 309 308 306 304 308 309 311 311 308 313 316 316 316 316 314 313 312 312 313 311 307 311 314 308 308 315 318 325 322 322 326 330 334 338 339 340 341 342 342 345 347 347 347 349 349 350 350 352 353 354 353 353 357 359 361 362 365 367 368 368 369 370 372 371 371 370 368 364 362 360 359 360 360 359 357 360 361 361 360 360 360 358 359 361
311 315 315 309 306 308 309 310 311 311 312 315 314 313 313 313 313 314 313 313 311 305 309 312 313 312 304 312 315 319 321 322 322 327 333 337 340 341 342 343 342 343 346 346 347 348 350 351 352 352 352 354 354 354 356 358 360 362 364 366 367 368 368 370 371 371 370 370 369 366 364 362 361 361 361 359 360 360 361 360 359 359 359 359 357 357
311 310 309 310 312 311 311 309 312 313 313 312 310 310 311 310 313 312 311 313 305 303 311 313 312 314 304 309 315 321 326 324 322 321 323 329 336 340 342 342 343 344 345 347 347 347 349 351 351 352 353 354 355 355 356 357 359 361 363 365 366 368 368 369 369 370 369 368 368 368 367 364 363 363 360 360 362 361 360 360 357 358 358 358 357 358
307 308 310 310 313 310 308 307 309 310 310 309 309 310 305 304 305 301 306 301 302 302 310 313 313 310 309 314 317 319 321 324 325 323 323 324 332 339 342 343 344 344 345 346 347 348 348 349 350 350 353 355 356 356 357 357 356 359 362 364 365 366 368 368 369 369 369 369 368 368 367 367 366 364 363 363 363 362 360 360 358 358 355 356 355 354
305 311 310 310 310 311 310 303 304 304 306 307 306 306 304 301 300 296 301 304 304 308 312 312 315 308 314 317 321 319 322 324 325 326 326 328 329 337 342 344 343 344 344 345 347 348 349 350 350 352 353 355 356 357 356 357 357 359 361 364 364 366 368 369 368 368 369 368 369 369 369 368 367 366 365 365 362 361 361 360 359 357 355 354 355 354
299 300 306 308 305 312 309 307 307 307 307 307 310 308 306 306 302 298 301 299 301 304 309 313 309 306 307 311 320 322 325 325 324 323 327 331 334 336 340 344 343 344 345 346 347 347 348 349 352 351 353 355 356 357 356 357 358 360 361 363 364 365 367 368 368 369 368 368 369 370 369 369 369 367 365 365 363 362 361 361 361 360 357 356 358 355
303 303 309 312 311 312 308 310 311 309 308 309 309 310 307 306 312 303 306 305 305 305 305 309 307 312 311 321 326 326 323 324 324 326 328 331 334 336 337 339 340 341 343 345 346 348 350 351 352 352 353 355 356 358 357 358 359 359 360 363 365 365 367 368 368 368 368 369 369 370 369 369 369 368 367 365 365 364 364 363 362 361 361 359 357 358
305 301 309 311 312 310 310 311 310 311 301 307 307 303 307 314 312 308 309 310 310 307 303 313 311 312 318 320 322 322 322 322 323 324 325 327 330 337 336 337 340 341 343 345 346 347 350 351 352 352 354 354 355 356 356 359 360 360 361 362 364 366 366 368 369 368 369 369 369 370 370 370 369 368 367 363 365 363 365 364 362 360 360 360 357 355
303 303 309 308 306 311 313 312 312 311 311 310 303 307 313 316 314 310 302 306 304 300 303 308 307 309 309 306 319 319 317 318 320 321 321 326 331 333 334 336 338 340 342 345 348 350 351 351 352 352 353 354 355 356 358 360 362 362 362 363 364 364 364 367 368 367 368 369 369 369 370 370 370 368 367 366 366 366 364 363 362 360 359 358 355 353
309 301 306 308 308 310 312 311 309 311 312 309 308 315 307 303 302 309 308 299 299 299 301 305 308 309 310 310 315 316 317 318 320 322 322 322 330 333 334 337 339 341 342 343 345 349 350 351 352 353 352 353 356 358 359 359 361 361 362 363 363 364 365 366 367 368 368 369 368 369 370 370 370 369 368 366 367 366 363 361 360 358 357 356 355 353
310 301 303 309 308 310 310 308 301 305 310 312 313 311 313 310 306 305 306 308 307 300 301 301 305 304 314 314 316 316 319 320 319 320 321 322 324 334 336 336 338 340 341 342 343 347 350 350 351 352 352 352 355 356 357 357 358 358 360 362 363 364 366 367 367 368 368 368 368 368 370 371 371 370 368 367 366 364 362 361 359 357 355 354 353 353
308 310 300 306 309 308 302 305 303 305 304 305 305 305 309 308 312 310 310 307 304 302 301 301 300 306 314 318 317 318 320 321 320 320 322 322 324 327 336 336 339 341 341 342 344 346 348 350 351 352 353 353 355 356 356 356 357 357 358 360 361 362 364 364 366 366 367 368 368 369 370 369 370 369 367 366 365 364 362 361 359 356 356 356 353 352
308 307 301 305 304 303 304 309 308 307 308 307 305 304 306 306 304 301 301 311 308 304 300 301 300 309 316 320 321 319 321 320 322 322 322 323 323 327 331 338 341 342 344 344 344 345 346 350 351 351 353 354 353 353 354 355 356 357 357 358 359 359 360 360 363 366 368 369 368 368 369 369 369 368 367 365 364 362 361 360 358 357 356 355 354 352
313 311 306 303 304 304 307 310 312 311 310 309 309 305 308 307 308 304 297 303 308 308 309 307 304 307 318 322 321 321 321 321 322 322 321 322 324 327 337 337 341 345 344 343 344 343 345 349 351 351 353 354 354 355 355 356 355 356 357 358 359 358 359 359 361 365 369 368 368 368 369 369 368 367 366 364 362 358 357 358 358 357 355 354 352 352
321 308 304 304 309 310 311 312 312 312 310 307 308 309 308 305 306 306 306 308 306 307 305 304 302 307 317 325 323 321 324 322 323 322 324 324 323 330 338 338 342 345 346 344 344 342 345 348 352 353 353 354 355 356 356 355 357 357 357 357 358 358 359 360 360 362 367 368 367 369 369 368 367 365 363 361 359 356 356 356 357 356 355 353 352 349
306 309 306 302 301 304 306 309 309 311 309 306 305 307 309 309 309 309 309 311 305 306 307 304 299 305 317 326 331 327 322 320 320 321 327 331 332 331 338 340 340 345 347 344 344 345 347 348 350 353 354 356 356 355 358 357 356 356 357 357 356 358 359 361 362 361 365 367 366 366 367 367 365 363 362 360 356 355 355 356 355 354 354 351 349 348
308 308 305 299 296 294 295 296 298 301 304 307 308 307 308 307 307 306 302 305 299 307 310 305 305 311 317 326 323 324 323 322 322 322 322 327 336 336 339 342 344 345 347 346 345 345 346 350 353 355 357 358 357 357 359 359 357 356 358 358 358 358 360 360 362 361 363 365 365 366 367 367 365 362 362 360 357 355 355 355 355 354 352 351 348 349
308 310 308 306 303 301 304 307 310 310 308 303 305 306 306 308 308 307 307 304 301 306 305 308 310 311 313 315 316 318 319 319 319 322 321 328 332 336 345 344 344 345 347 344 347 347 351 354 355 357 358 358 357 359 359 358 358 358 360 360 359 359 361 362 363 363 362 364 364 365 367 366 365 363 361 361 359 357 355 353 352 351 349 349 347 344
313 308 309 310 309 308 309 309 310 310 307 307 306 305 307 307 307 306 303 301 310 305 300 308 313 309 311 315 317 318 319 320 321 322 322 323 332 337 340 348 346 344 346 347 348 349 351 354 356 358 359 359 358 359 360 359 359 360 361 360 360 360 359 361 363 364 363 364 365 366 367 367 366 364 363 362 360 358 356 355 353 351 351 348 345 341
312 307 310 310 308 309 309 309 310 310 309 308 308 307 306 307 307 305 306 307 309 303 302 310 313 311 312 314 317 319 320 321 319 321 322 322 323 337 348 345 341 341 345 344 348 350 352 353 356 358 358 358 358 359 360 360 360 362 363 363 364 361 361 364 364 365 364 365 365 366 369 368 367 365 362 360 359 357 356 354 354 354 351 347 344 340
316 309 311 310 308 309 310 310 310 309 309 308 308 308 308 308 307 307 307 307 307 308 309 309 312 311 313 315 316 318 321 321 321 323 322 323 326 340 342 344 339 339 342 344 348 349 352 354 357 358 358 358 358 359 358 359 361 360 361 362 362 363 363 364 365 366 366 365 366 367 369 367 366 362 360 360 357 357 355 354 353 350 349 347 343 345
313 308 311 310 307 307 309 310 310 309 308 307 308 309 309 308 308 308 307 308 309 308 308 308 309 310 316 319 318 319 321 320 320 320 321 324 324 329 337 337 339 338 340 345 349 349 351 353 356 357 357 357 358 359 359 360 362 362 360 362 363 364 364 364 365 366 367 366 368 368 368 365 364 361 360 359 356 356 354 352 348 348 348 348 348 345
313 309 313 310 305 304 308 308 309 309 309 307 307 308 308 307 306 307 306 308 307 307 308 308 307 308 314 318 318 319 319 320 320 323 322 322 324 330 337 337 337 341 340 344 347 349 350 351 355 355 356 357 358 361 362 362 362 362 360 362 362 362 363 363 364 365 367 367 368 368 366 363 361 359 358 357 356 355 354 352 348 347 348 348 346 345
313 311 308 308 303 304 307 308 307 307 306 303 304 307 309 309 309 310 310 311 310 310 307 305 306 313 316 317 315 317 316 319 321 322 322 324 337 336 337 338 338 341 343 346 348 348 349 350 354 356 356 357 358 360 361 363 361 361 362 363 364 365 364 364 363 366 367 368 367 368 366 363 361 359 359 357 356 355 354 352 348 346 345 345 345 344
314 312 309 311 304 305 307 307 307 303 297 299 310 312 311 308 309 307 307 309 311 311 309 312 313 317 316 316 317 318 317 317 321 331 331 334 339 345 339 338 339 340 343 345 348 349 351 352 353 355 357 359 361 361 363 364 362 364 364 365 366 365 364 364 365 366 366 367 367 367 366 363 360 359 358 356 354 352 351 349 347 346 345 345 344 343
311 311 309 310 306 304 307 307 302 296 298 311 314 314 314 312 312 310 310 311 312 313 313 312 314 316 318 318 319 320 324 327 330 331 331 337 341 339 342 339 341 343 345 347 349 349 351 353 354 357 357 357 358 361 362 361 362 364 363 364 364 365 364 364 366 365 366 365 366 366 365 363 360 357 357 353 351 350 349 348 348 345 344 342 340 340
310 309 309 308 308 309 306 305 295 297 310 312 314 315 317 315 313 311 309 311 313 313 314 313 314 315 317 319 320 322 325 324 330 339 343 338 336 335 332 335 339 342 343 346 349 350 351 350 353 354 356 358 358 359 361 359 358 358 362 364 364 364 365 365 365 364 365 364 365 365 364 362 358 356 355 351 350 349 347 346 345 343 342 339 337 338
313 312 310 305 311 302 304 303 302 310 308 310 311 314 315 312 312 310 305 309 313 314 314 314 315 315 316 318 319 320 329 330 328 329 332 332 335 334 332 334 336 340 342 346 346 348 354 355 355 357 359 358 356 355 354 355 356 359 362 362 362 364 364 363 362 362 364 362 364 363 362 361 358 355 354 351 349 347 345 343 341 340 340 336 334 333
316 309 312 306 304 307 304 302 303 303 300 306 315 319 322 320 321 319 316 313 317 316 316 316 316 318 318 318 319 324 330 323 317 318 326 331 334 335 334 336 336 339 341 344 348 352 355 353 352 358 354 355 353 356 357 357 356 360 361 360 361 362 361 361 360 362 363 361 362 361 360 358 354 353 353 351 348 346 345 343 341 339 338 335 333 331
314 314 315 306 304 306 304 300 300 299 302 315 317 317 320 321 320 320 313 307 317 318 318 317 316 319 320 319 319 329 322 314 314 319 325 332 333 332 333 336 338 340 344 347 349 349 348 351 354 354 354 356 358 359 361 360 361 360 359 359 361 360 359 358 360 360 361 360 361 360 357 354 353 353 352 351 349 347 346 345 342 339 336 335 334 333
310 308 309 305 305 304 303 301 299 306 304 315 317 318 319 322 318 315 302 303 317 319 320 320 317 318 320 321 327 327 320 313 314 322 337 335 332 333 337 339 341 342 343 346 347 351 356 357 356 355 357 357 359 361 362 362 358 357 358 360 358 356 357 358 360 362 361 360 359 358 355 353 351 352 352 351 349 348 347 345 343 339 336 334 334 334
307 306 307 303 303 304 303 302 306 307 317 316 318 319 320 321 319 307 299 310 324 327 327 331 325 321 322 323 329 323 325 330 340 337 337 337 338 340 342 345 347 347 346 347 351 352 355 354 354 354 357 358 359 359 359 358 358 358 359 358 356 356 357 360 360 359 359 358 356 355 353 352 351 350 350 350 348 346 345 343 341 338 336 335 336 336
306 307 307 306 303 302 304 301 302 307 318 317 321 320 322 315 306 306 318 325 328 325 328 326 326 328 329 331 330 326 334 336 338 338 339 341 343 344 343 344 346 348 351 351 351 351 352 355 359 358 358 359 358 358 359 360 358 358 357 357 357 358 359 359 358 358 357 355 353 352 351 351 351 350 349 350 349 345 342 341 341 339 338 338 338 338
306 304 302 302 306 306 305 303 300 295 314 320 319 319 321 311 316 323 326 328 328 329 327 328 326 328 330 331 332 337 335 335 337 340 341 342 343 344 345 346 347 347 348 350 352 353 353 354 354 353 353 352 354 357 357 358 357 356 357 357 356 356 357 357 356 356 354 352 351 350 350 350 349 348 347 347 346 344 340 339 339 340 340 340 339 338
313 304 303 304 308 301 302 300 300 309 319 321 319 314 320 320 323 327 328 328 329 332 333 332 334 332 333 337 336 338 341 341 343 344 344 345 346 347 347 348 348 348 347 348 350 351 351 351 350 348 349 350 354 356 357 358 356 355 356 354 355 355 355 355 354 353 351 350 349 348 348 347 347 347 347 346 344 343 342 340 339 341 341 340 338 337
317 313 315 304 313 308 305 309 320 322 321 321 322 320 321 323 324 326 328 328 330 331 336 335 335 337 338 339 338 338 337 339 340 341 341 342 343 344 344 344 344 344 345 345 346 349 348 348 349 349 349 351 353 355 356 356 356 356 353 353 355 354 354 353 352 351 349 349 347 347 346 346 346 347 346 344 343 342 341 340 340 339 340 340 338 337
316 318 321 317 316 319 318 321 322 321 320 320 322 322 321 321 324 326 327 327 329 332 334 334 335 336 337 338 335 336 336 336 336 337 339 342 344 346 347 347 347 347 347 348 349 348 348 348 348 349 349 351 352 353 355 358 358 355 352 353 353 354 354 352 351 349 348 347 346 345 345 345 344 344 344 343 342 342 342 341 339 338 339 338 337 338
315 316 316 312 318 308 303 320 319 317 318 320 320 322 323 323 322 325 327 328 328 329 330 331 332 334 335 335 336 335 335 337 338 340 342 343 342 343 345 347 349 349 349 349 350 350 350 350 348 348 348 348 351 351 352 356 355 353 353 352 352 352 353 352 350 348 347 346 346 345 344 344 341 341 342 343 341 342 342 341 340 339 337 338 337 336
312 317 316 315 315 311 315 318 318 318 319 320 320 318 319 321 323 325 325 326 327 327 327 328 329 328 330 332 334 331 331 333 335 336 337 339 341 344 345 346 347 347 349 352 352 351 350 349 349 348 348 348 349 350 351 351 351 351 351 349 349 351 351 349 348 346 346 345 345 343 344 343 340 340 340 340 340 339 339 339 340 338 337 337 336 337
312 317 311 313 313 314 318 318 319 318 318 317 319 321 322 322 322 323 324 324 323 323 324 325 326 326 328 329 332 334 335 335 334 335 335 339 341 343 344 345 347 348 348 349 352 352 351 351 351 350 348 348 350 350 351 349 347 348 349 348 350 351 350 347 345 346 344 343 342 341 342 342 341 341 340 340 331 322 318 319 333 339 338 342 341 343
314 312 313 313 311 310 311 315 320 311 309 314 316 319 320 321 321 321 322 322 323 323 323 322 323 325 326 328 330 331 330 332 335 337 336 338 340 342 343 343 344 345 346 348 349 351 351 352 352 350 349 348 350 349 348 347 347 348 346 348 349 350 349 347 345 344 342 342 341 341 339 340 339 340 339 338 331 324 316 304 297 303 328 337 313 303
309 311 313 312 312 309 313 319 319 317 319 318 319 319 321 320 320 318 318 319 321 323 323 322 321 322 323 325 327 328 329 330 331 333 333 334 337 340 342 343 342 342 343 345 345 346 347 348 349 349 349 348 348 347 347 347 347 347 346 348 349 350 349 348 345 342 340 339 338 338 339 339 339 340 340 339 336 333 328 323 316 296 293 300 302 299
Wind_Speed
11 14 14 16 15 17 18 18 17 17 11 12 12 13 13 12 10 12 10 11 17 13 14 14 15 14 13 12 10 11 12 12 12 13 12 13 14 15 15 15 15 16 16 15 16 17 17 17 14 14 13 13 14 13 13 13 14 13 12 12 12 11 11 10 10 10 10 10 9 9 9 9 8 8 8 7 7 7 6 6 6 5 4 4 4 4
11 14 15 17 16 16 18 18 18 18 13 14 12 13 12 13 11 11 10 9 13 13 11 14 14 14 13 11 7 10 12 14 14 14 14 15 15 14 16 16 16 15 12 15 14 16 17 15 17 15 13 14 15 14 14 14 14 13 14 13 12 11 11 12 11 10 10 10 9 9 9 9 8 8 8 8 7 7 6 6 6 5 5 6 6 5
12 16 15 17 16 14 15 18 18 19 14 14 12 11 12 11 11 7 8 9 11 12 9 10 13 14 14 12 10 12 13 12 13 14 15 15 15 14 15 17 16 15 14 15 16 18 17 19 18 15 14 14 15 15 15 14 14 14 14 13 12 11 12 12 12 11 10 10 10 9 8 8 8 8 7 8 7 7 7 7 6 6 6 7 7 7
13 14 16 14 15 16 15 17 19 17 15 13 13 12 11 10 10 10 10 10 12 10 9 11 12 10 11 13 15 12 14 12 13 15 15 15 16 17 17 16 16 17 16 17 17 19 19 19 18 17 15 15 15 14 14 15 15 13 12 12 13 12 12 11 12 12 11 11 10 10 8 8 8 7 7 7 6 6 7 7 6 6 5 6 7 7
12 7 15 15 15 15 16 16 17 15 14 16 16 14 13 13 12 11 11 12 10 11 9 8 9 10 12 14 14 14 15 14 14 15 15 15 15 16 15 16 17 18 17 17 18 18 18 19 20 19 17 16 15 15 15 15 14 11 14 13 13 12 12 11 12 13 11 10 11 9 9 8 8 8 7 6 8 8 8 8 7 7 7 7 7 6
15 7 7 15 13 16 16 15 17 15 14 14 19 17 14 13 10 13 10 12 8 10 10 10 9 12 12 15 16 12 11 15 15 16 17 17 16 16 17 17 17 17 17 18 19 19 19 19 19 19 18 17 15 15 15 14 14 13 12 13 13 11 11 12 13 13 11 10 10 10 9 9 9 9 9 9 9 8 8 8 6 7 7 7 6 6
11 10 11 12 16 16 17 16 17 18 14 15 15 19 17 12 9 11 10 12 11 11 9 12 11 10 9 12 14 14 14 15 14 18 18 17 17 17 17 16 17 18 17 18 18 18 20 19 19 19 18 18 18 16 15 14 14 15 13 14 14 12 11 11 12 13 11 11 10 12 11 10 10 9 8 8 8 7 6 5 6 5 6 6 7 7
12 12 11 12 14 17 16 16 16 19 15 15 12 17 17 14 12 12 13 14 11 11 8 12 10 11 10 10 11 12 15 16 16 18 18 17 19 20 19 18 18 18 18 17 18 19 19 19 20 20 20 18 19 17 16 15 14 15 15 14 14 12 11 11 11 13 11 10 11 11 12 11 10 10 9 8 8 7 6 6 7 5 5 6 6 6
17 15 14 15 15 14 17 16 14 19 16 12 12 13 17 15 14 12 12 12 12 12 9 10 14 12 11 7 2 8 12 14 16 17 18 19 20 20 21 20 20 20 19 18 17 19 19 20 20 19 19 19 19 17 16 15 14 14 15 14 14 13 12 11 13 12 13 11 11 11 11 11 10 10 9 8 8 8 8 8 6 6 5 6 6 7
8 15 16 16 14 14 13 16 16 17 16 17 5 10 13 14 13 13 11 12 12 14 13 13 13 11 11 9 9 9 12 12 14 17 18 19 20 20 20 21 21 19 17 18 19 18 19 19 19 19 19 19 18 17 16 15 14 14 13 14 15 15 12 11 13 13 13 13 11 11 12 13 11 10 9 9 8 8 7 8 8 6 6 6 6 6
5 9 11 13 15 13 13 13 16 17 18 9 7 10 11 12 12 12 12 11 14 15 12 15 13 12 12 11 11 10 11 13 12 10 13 16 18 20 20 20 19 19 18 17 18 18 19 19 19 19 19 18 18 17 17 16 15 14 14 15 16 15 12 13 13 14 14 13 12 11 13 14 13 13 11 10 10 9 8 8 8 7 7 7 7 6
10 9 9 11 13 12 13 13 10 10 16 13 9 11 9 9 7 8 9 8 12 12 13 18 16 15 14 12 11 10 13 12 10 11 11 15 19 19 18 18 19 19 18 18 17 18 18 18 19 18 18 18 18 17 17 16 15 15 14 14 16 15 15 13 13 14 14 13 13 13 13 14 14 14 11 12 12 11 10 9 8 7 7 7 8 7
17 14 10 11 12 16 15 13 12 14 15 14 13 13 14 10 9 12 11 13 14 13 12 17 18 14 17 14 11 6 9 10 11 11 12 11 13 16 17 18 16 17 18 17 17 16 17 18 18 19 19 18 18 17 18 18 17 16 15 16 16 16 16 14 14 15 15 14 14 13 13 13 12 13 14 12 12 11 10 9 9 8 8 8 8 8
13 13 16 14 12 15 15 15 13 13 15 15 16 14 15 15 14 13 13 10 11 13 17 9 13 15 10 12 15 18 17 15 14 14 13 10 9 9 14 16 16 17 18 18 17 17 17 17 17 18 18 18 17 18 18 18 17 15 14 16 17 17 16 15 14 15 15 16 14 14 13 12 12 12 13 12 12 10 9 8 9 9 9 8 9 8
12 15 18 19 13 16 17 16 15 11 14 16 16 16 15 14 12 14 13 15 14 12 13 16 12 11 14 9 12 14 15 15 14 14 11 9 10 9 11 14 17 18 18 17 17 18 19 19 19 18 18 17 17 19 18 17 17 15 15 16 17 16 16 16 16 14 16 14 15 13 13 12 11 11 11 11 10 10 10 9 9 9 8 7 7 8
18 11 11 22 11 16 17 17 16 14 12 15 15 15 16 18 12 14 10 14 13 12 15 14 12 9 13 4 2 4 6 10 11 12 10 10 9 10 10 13 15 16 18 18 19 19 20 20 19 18 17 17 17 19 17 18 17 16 16 16 17 17 16 16 16 16 15 15 13 14 14 14 13 10 10 10 10 9 10 10 9 8 8 7 7 7
10 13 10 16 22 18 19 17 17 14 13 13 16 19 17 13 16 14 14 14 14 14 17 10 9 13 10 11 12 13 12 14 13 13 12 12 11 11 12 13 15 16 17 17 18 17 19 19 19 18 18 17 18 18 18 18 18 19 17 16 17 17 16 17 17 16 15 14 14 15 15 14 13 13 12 11 12 12 10 9 9 8 9 9 8 8
8 8 11 10 20 18 16 18 18 20 14 8 16 16 14 13 13 16 16 10 13 15 13 13 15 12 13 12 11 19 20 19 16 16 14 12 11 13 13 13 14 16 17 18 18 18 20 20 21 20 18 19 19 20 19 19 18 17 16 17 17 17 18 17 17 17 15 15 15 14 15 14 14 13 13 12 12 11 9 9 9 9 9 10 9 8
11 10 12 17 16 17 17 17 17 20 21 18 10 11 15 13 14 12 10 18 17 16 13 15 18 15 14 12 9 10 12 15 16 16 15 10 11 14 13 14 14 15 15 16 17 15 16 17 18 19 20 20 19 19 19 19 18 16 16 17 18 19 19 19 15 15 13 14 12 12 13 15 14 13 12 12 11 11 11 12 11 11 9 9 9 8
9 10 7 14 15 15 17 15 17 17 20 22 15 12 16 14 15 14 14 10 11 15 14 17 19 14 13 13 12 12 9 8 7 10 8 9 11 12 11 12 14 15 15 16 17 17 18 19 21 21 21 21 20 19 18 19 17 19 19 18 17 18 17 17 17 16 15 15 13 12 12 13 13 13 12 12 12 11 12 12 11 10 10 10 10 9
8 9 10 10 16 14 15 15 18 17 17 18 16 13 12 12 9 12 13 15 15 15 15 13 16 13 11 12 17 16 12 11 13 13 13 12 12 12 12 11 12 15 15 16 16 17 18 18 19 19 20 19 19 18 18 18 19 19 18 19 19 19 19 19 18 17 15 14 14 14 14 14 14 15 13 14 14 13 12 11 11 12 11 10 11 11
10 11 12 7 11 13 13 16 20 21 19 16 15 18 15 14 14 15 17 14 16 15 12 15 17 11 8 11 12 14 15 15 13 13 13 15 15 12 8 10 11 12 14 15 15 16 16 16 17 17 16 16 17 17 19 17 17 18 18 17 18 19 18 19 18 16 15 14 13 15 15 16 14 14 13 14 14 13 12 12 12 11 11 12 11 10
10 6 10 12 11 12 15 15 18 19 21 19 17 17 19 16 14 14 13 13 15 17 18 18 15 16 10 8 12 14 16 17 15 15 14 14 15 9 7 8 10 12 13 14 15 14 14 15 15 16 18 18 19 17 18 17 17 17 18 18 17 18 19 19 18 16 14 13 14 16 15 14 14 14 15 15 13 14 13 12 11 11 12 11 10 11
11 10 10 13 11 12 13 15 15 17 19 20 19 18 18 20 20 17 14 13 15 14 15 17 18 13 9 7 9 11 13 15 14 13 13 14 14 7 6 6 8 10 11 12 12 12 13 14 14 14 16 16 16 16 17 16 16 16 16 17 17 19 20 19 16 16 15 14 15 16 15 15 14 16 16 16 14 15 15 14 13 13 13 13 12 12
11 10 10 10 10 9 11 13 12 13 15 14 15 18 20 19 23 21 18 14 17 20 19 17 19 12 11 6 4 9 13 17 16 16 14 11 10 9 7 6 7 9 9 11 13 13 13 14 16 15 16 15 15 15 15 15 16 16 16 16 17 17 18 17 15 15 15 16 17 16 15 16 16 16 17 17 15 17 17 16 15 13 14 14 13 14
13 11 13 13 15 15 15 16 15 16 17 13 16 19 22 24 24 19 18 17 16 14 19 18 15 13 12 11 12 14 13 11 10 12 12 9 9 8 4 6 7 8 9 11 12 13 15 14 13 14 15 14 15 15 15 15 15 16 15 17 17 16 15 16 15 16 15 15 16 15 17 17 16 17 18 17 16 17 17 16 15 15 15 16 15 14
8 10 13 15 15 15 13 11 11 13 12 17 18 21 21 21 24 23 15 16 18 13 17 17 16 13 17 17 16 16 14 14 14 14 14 12 12 10 6 6 7 8 10 12 13 11 11 13 16 16 16 15 16 16 15 15 16 15 15 16 17 15 14 14 14 14 15 14 15 15 16 16 16 16 16 15 14 14 16 17 16 16 15 15 16 16
8 11 14 18 20 18 16 15 13 16 17 17 21 21 20 20 20 23 20 20 15 14 15 14 16 18 18 17 17 17 18 15 14 12 13 14 11 11 9 8 8 9 10 11 12 14 16 16 15 16 16 16 16 15 14 15 15 15 15 16 15 15 13 11 13 14 14 13 13 13 14 15 14 14 13 12 13 14 15 15 14 14 13 13 16 17
9 11 14 17 20 21 22 21 19 17 17 17 18 20 21 22 20 21 21 23 20 17 17 12 15 19 19 21 19 15 14 14 14 15 17 18 15 8 6 8 10 11 12 14 15 14 14 16 16 17 17 16 17 17 17 15 15 14 13 13 13 13 13 12 12 13 13 12 12 12 12 12 12 11 12 13 12 13 14 14 11 9 9 12 13 14
8 12 14 16 19 21 23 24 23 23 20 21 22 21 22 24 25 24 23 23 25 21 18 18 17 20 19 19 23 23 17 16 14 16 16 14 14 11 9 8 10 11 13 15 16 16 16 16 15 16 17 17 18 17 17 15 15 16 15 14 13 13 12 12 12 12 12 13 13 11 11 12 11 12 13 13 14 14 13 11 12 12 11 11 13 12
10 10 13 14 15 19 22 23 23 23 23 24 23 23 23 22 24 26 25 24 23 23 24 24 22 20 15 16 19 20 19 20 19 17 17 17 18 14 11 11 11 12 14 14 14 15 15 15 15 16 17 18 18 18 17 15 15 14 15 13 13 13 13 12 11 11 12 12 11 11 11 12 12 13 13 13 14 15 14 13 13 14 15 14 12 13
10 9 7 7 10 13 16 20 22 22 23 23 21 23 23 23 23 21 21 21 21 21 21 23 22 19 15 17 18 18 19 18 19 16 18 16 19 16 12 12 12 13 14 14 15 15 15 17 17 18 19 19 19 18 16 15 14 14 14 13 13 13 12 12 12 11 11 11 10 10 12 12 12 12 13 14 15 15 15 14 16 16 15 12 12 11
6 7 8 8 10 11 13 15 19 20 18 19 20 20 21 22 21 21 21 22 24 22 21 20 19 15 15 17 19 19 22 19 17 17 18 18 13 13 12 12 12 12 13 14 15 16 18 19 19 19 18 18 17 17 16 15 14 14 14 13 12 11 11 12 12 11 11 10 10 10 11 12 12 12 12 13 14 14 14 14 15 15 13 13 12 12
7 5 6 2 7 7 12 15 11 14 18 16 12 20 23 23 23 24 21 22 22 21 17 16 15 15 17 17 19 21 23 21 19 16 15 12 10 10 11 11 10 10 11 12 13 14 14 13 13 15 17 16 16 16 15 14 13 12 12 11 11 12 11 11 11 11 10 10 10 10 11 12 11 11 11 10 11 12 13 13 16 15 12 10 11 10
11 6 5 1 5 7 7 8 9 16 15 10 9 12 18 22 22 23 22 23 22 21 22 21 18 16 14 16 19 18 15 15 15 16 16 13 9 9 9 9 9 10 10 11 13 14 15 15 14 15 15 15 14 13 13 13 12 11 11 11 11 11 11 11 10 10 9 10 10 10 10 11 10 10 10 10 11 13 14 15 13 13 11 9 13 13
11 12 7 5 4 6 8 9 14 14 8 9 4 3 6 10 16 19 22 23 23 23 21 21 21 20 18 17 16 14 15 14 9 7 7 8 8 10 10 10 11 11 11 11 11 12 14 15 15 15 15 13 13 13 12 12 12 12 11 11 11 11 10 10 10 9 9 9 9 9 9 9 10 10 9 11 12 12 14 14 13 13 11 11 11 9
12 10 9 9 4 6 6 8 12 7 9 11 10 1 2 5 8 13 15 18 21 20 21 20 21 22 21 20 19 15 8 7 8 10 11 12 11 11 11 10 10 12 12 12 14 14 13 13 12 12 13 13 14 13 13 12 12 11 11 11 10 10 9 9 9 9 9 9 8 9 9 9 10 9 10 11 11 12 13 13 13 13 11 12 9 9
10 12 8 9 5 6 5 9 11 11 11 4 8 3 6 6 7 6 4 11 13 18 20 20 19 18 20 20 19 8 8 8 11 12 13 14 12 10 8 7 8 10 12 13 12 12 14 14 14 13 13 13 13 12 12 12 12 11 10 10 9 9 9 9 9 8 8 8 8 8 8 8 9 8 9 9 11 13 12 12 12 12 12 12 11 11
15 12 9 13 10 11 9 8 9 11 4 6 4 7 8 7 7 6 5 12 10 16 17 21 22 20 20 20 14 11 9 11 12 12 11 12 11 11 10 9 9 10 12 13 14 15 15 14 15 15 14 14 14 13 13 13 13 11 10 10 9 9 10 9 8 8 8 8 8 8 8 7 8 8 9 10 10 11 11 11 12 13 11 9 9 9
16 13 11 12 14 13 11 11 10 7 4 3 8 8 10 7 4 5 10 12 4 9 15 20 21 20 19 19 13 13 12 13 13 9 8 10 9 9 10 11 11 12 12 13 13 13 13 15 17 16 15 14 13 13 14 13 11 11 10 10 10 10 9 8 8 7 7 8 8 8 8 6 7 8 8 9 9 9 9 8 10 12 12 11 9 9
14 14 14 15 14 13 15 12 8 9 1 7 11 11 8 4 5 9 12 3 11 12 13 12 14 18 17 15 13 12 13 4 4 7 8 10 11 9 9 8 9 10 13 14 14 14 13 13 14 15 15 13 13 13 12 12 12 11 10 10 10 10 10 9 9 9 8 8 8 8 8 7 8 8 8 7 8 10 8 9 11 11 10 11 11 11
16 13 12 13 13 14 13 13 12 8 4 5 7 9 4 4 8 9 7 9 10 11 8 8 10 8 7 11 11 9 6 8 8 8 9 9 11 11 11 11 11 11 12 13 13 11 12 12 13 14 13 11 12 12 11 12 12 11 11 10 11 11 10 10 10 9 9 9 8 7 8 7 7 7 6 6 7 9 9 10 11 11 11 10 10 11
13 13 15 14 11 10 10 13 10 12 3 6 9 3 3 7 5 9 11 10 7 9 7 4 4 5 6 8 8 10 11 11 12 12 12 12 12 13 13 13 13 14 15 15 13 12 12 13 13 13 13 12 12 10 10 12 12 11 10 11 11 10 10 9 9 10 10 9 8 7 7 7 8 7 6 6 6 9 10 9 10 11 10 9 9 10
9 14 11 13 12 13 13 13 8 2 6 6 7 3 4 8 11 12 9 9 6 7 4 2 2 2 5 8 11 12 14 15 14 15 15 15 15 15 14 14 14 15 15 15 15 15 15 13 13 12 11 10 9 9 9 10 10 11 11 12 9 9 9 10 10 10 9 9 8 8 7 7 7 7 6 6 7 9 9 9 9 8 8 8 8 9
4 4 4 5 8 10 8 5 5 6 6 7 7 4 4 8 10 10 7 6 5 3 2 4 5 5 7 11 14 15 15 15 17 16 17 16 16 16 16 15 15 15 15 15 15 14 13 13 13 12 11 9 9 8 8 8 10 13 13 10 9 9 9 9 9 9 9 8 7 7 7 7 6 7 6 6 7 8 9 10 9 9 9 9 9 9
3 3 2 4 3 5 7 7 4 5 7 9 10 8 8 9 8 6 7 4 5 6 7 8 8 9 10 11 15 16 17 18 20 19 19 17 17 16 15 15 15 14 14 14 12 12 13 13 14 14 13 10 8 8 8 8 9 12 11 10 9 9 9 9 9 9 8 7 7 7 6 7 6 6 6 7 7 8 9 10 9 9 9 8 9 9
7 5 3 4 5 5 2 6 5 6 6 11 13 12 10 9 8 7 6 5 6 9 13 14 14 13 11 10 13 16 19 18 19 17 17 16 17 17 16 16 15 14 13 13 10 10 10 11 12 13 13 12 9 8 8 9 10 10 10 10 9 9 9 9 9 8 7 7 7 7 6 6 6 7 6 7 7 7 7 7 9 8 8 8 9 10
3 11 3 5 4 2 4 6 7 6 8 12 13 11 10 10 10 8 7 8 9 12 16 17 16 15 13 13 13 16 19 18 17 15 15 15 14 14 14 14 14 13 12 12 10 11 11 11 11 11 11 10 9 8 8 8 9 9 9 9 9 10 9 9 8 7 7 7 6 6 6 6 6 6 6 6 6 6 7 8 8 7 7 8 8 7
6 7 2 3 1 6 6 4 4 7 11 12 15 13 10 11 9 10 11 12 13 16 19 20 19 16 15 15 16 17 18 17 16 15 15 13 13 13 13 13 13 13 12 12 11 11 10 10 10 10 10 9 8 8 8 8 8 9 9 8 9 9 9 8 9 8 8 7 6 6 6 5 7 6 5 6 6 7 7 5 2 1 5 4 3 1
4 2 4 3 3 4 3 5 5 5 5 4 12 8 11 12 10 12 14 16 16 15 16 19 18 16 16 16 15 15 16 15 16 15 16 14 13 13 13 13 13 13 12 11 10 11 11 10 10 10 9 7 6 7 7 8 7 7 8 8 8 8 8 9 8 7 8 7 6 7 7 6 7 7 7 7 6 6 5 7 8 7 3 2 7 8
5 5 5 2 2 4 6 4 4 4 6 8 7 3 4 9 11 13 15 15 16 16 15 16 16 15 15 15 15 16 15 15 15 15 15 13 12 12 12 12 12 11 11 11 11 11 11 10 9 9 9 7 6 6 6 7 6 6 7 6 7 7 8 8 7 6 6 7 7 8 7 6 6 7 5 6 6 6 6 5 6 11 11 8 6 6
Wind_Direction
172 204 197 206 205 199 205 208 215 224 228 228 223 228 233 235 224 208 207 183 194 204 213 218 222 229 227 214 191 188 183 193 203 204 202 201 200 199 199 200 201 200 201 191 191 193 195 196 197 198 197 199 200 200 199 200 202 202 202 200 203 201 202 204 204 206 207 208 211 217 219 220 213 215 218 224 226 228 223 215 203 194 201 180 184 208
195 213 209 207 210 203 204 207 212 225 221 225 227 228 232 235 239 184 190 191 193 214 215 218 230 232 234 231 196 192 193 196 197 206 209 207 204 204 204 204 203 203 201 190 187 191 193 197 197 197 198 198 198 198 201 202 202 203 204 205 205 203 203 206 207 208 209 211 213 211 215 220 221 219 225 227 226 229 225 216 204 200 193 183 186 199
207 217 211 205 211 215 206 205 210 219 218 225 236 229 237 228 236 132 187 193 198 219 237 214 228 237 235 232 211 210 208 207 203 206 211 209 209 208 207 207 204 200 197 191 190 189 193 196 197 196 199 200 201 199 201 203 203 203 205 206 206 207 206 207 207 209 210 210 214 217 219 223 231 227 226 229 228 223 226 218 205 200 186 190 195 195
208 217 217 204 209 212 206 204 208 214 222 224 222 234 230 231 206 197 197 199 201 213 230 225 238 246 246 241 238 221 217 211 209 212 214 210 212 211 209 206 205 203 196 194 193 193 193 194 195 196 198 199 199 199 199 200 200 201 203 203 204 206 208 209 207 209 210 209 211 218 226 231 237 238 224 235 238 232 223 218 212 207 210 198 216 212
213 209 206 213 203 207 206 202 209 211 216 220 229 226 233 225 212 215 191 205 204 217 247 256 249 251 243 240 232 223 223 221 211 212 217 216 214 217 215 212 208 205 198 197 197 197 195 195 197 198 198 197 199 200 200 199 198 198 198 197 198 201 205 207 205 206 207 206 212 214 222 230 230 240 242 233 234 231 231 234 223 230 217 219 224 212
221 209 212 199 197 209 214 209 211 211 220 216 220 231 234 235 227 215 206 189 205 218 204 224 248 250 238 234 239 232 214 218 212 210 211 210 211 210 216 214 210 210 203 199 198 199 200 198 198 198 199 200 201 202 204 201 200 197 196 196 197 200 203 206 204 202 201 207 211 211 213 216 219 225 222 224 227 225 224 232 226 207 219 219 219 214
224 159 192 203 208 211 215 221 207 213 222 221 210 216 229 244 227 225 193 194 215 232 207 205 240 252 242 231 227 221 226 218 209 213 212 206 206 207 211 211 210 208 205 202 202 199 200 200 199 199 199 201 203 203 202 201 201 197 196 194 196 198 201 202 201 197 198 204 212 212 215 219 218 221 223 226 232 238 231 228 227 212 211 210 215 211
211 197 192 208 213 209 212 218 208 208 220 225 214 202 217 221 224 216 212 216 231 227 208 198 215 252 252 229 220 221 224 218 214 215 215 211 207 207 207 208 209 207 206 201 202 201 202 199 199 199 198 200 204 202 200 201 201 198 197 194 194 196 198 196 196 195 195 202 205 211 216 220 224 223 227 220 225 228 231 224 226 222 219 208 216 220
190 202 200 196 213 214 216 216 207 207 220 227 218 200 203 212 221 223 221 226 233 231 219 213 223 248 253 243 227 212 221 213 220 220 216 216 213 210 208 207 206 207 205 205 201 201 199 199 198 197 198 200 203 202 200 200 199 198 197 196 195 197 196 195 192 190 194 199 203 209 214 219 222 226 228 227 222 225 220 228 223 224 221 210 213 220
190 213 202 205 206 219 218 215 219 205 218 226 242 194 208 212 221 227 226 232 234 231 232 216 202 240 249 242 213 206 228 230 230 223 220 214 213 211 209 208 206 203 204 206 207 203 199 197 197 197 197 198 200 202 200 199 198 197 195 197 197 199 198 196 193 193 195 197 199 208 214 218 218 220 225 229 223 218 220 222 225 221 217 213 209 217
175 194 210 204 210 218 217 221 220 210 221 221 196 206 204 208 218 220 236 238 238 230 232 242 207 222 255 242 221 199 215 228 240 230 226 221 215 214 210 207 203 200 199 201 204 204 200 196 195 194 197 197 197 198 196 197 196 195 194 195 198 200 198 196 195 195 198 198 200 207 211 214 218 217 221 222 224 218 216 223 225 222 217 217 219 217
176 170 194 207 212 213 223 221 215 224 216 215 211 209 200 207 209 222 222 229 245 232 230 237 229 203 245 242 244 215 227 237 243 252 243 225 215 210 207 206 204 200 197 196 199 201 199 197 196 194 195 195 194 193 193 195 194 195 195 193 197 198 199 197 198 198 200 200 202 206 208 212 214 217 220 220 221 215 217 221 222 220 219 215 219 217
217 202 195 188 197 211 202 221 200 209 218 213 218 212 206 189 192 213 209 217 223 236 226 229 227 219 229 253 268 228 223 234 241 253 258 251 224 213 201 202 201 201 197 194 194 196 196 196 195 195 193 192 191 191 192 194 196 194 194 193 195 198 197 198 197 200 201 202 203 204 207 210 212 215 218 220 222 221 224 224 222 217 219 217 218 213
215 214 206 201 185 199 206 203 198 198 204 206 211 205 204 212 204 217 210 223 233 222 239 248 224 237 243 240 233 249 251 249 257 261 257 258 257 217 204 197 198 198 197 195 191 193 195 195 194 193 192 191 190 190 189 192 195 192 193 193 195 198 196 196 198 200 202 204 204 203 204 207 207 211 215 220 226 223 224 222 219 218 216 216 217 209
203 198 211 202 206 180 207 215 208 207 190 208 213 212 212 218 212 213 214 217 222 232 212 208 222 225 235 230 240 238 241 255 260 263 261 248 233 224 207 200 199 196 197 195 192 192 192 192 192 192 192 190 189 189 190 191 193 191 192 192 194 196 196 196 198 199 203 203 203 203 204 205 206 208 211 219 224 221 216 215 212 211 215 218 214 210
217 232 196 200 207 180 203 206 222 206 205 206 213 223 224 219 220 232 220 223 223 222 232 199 222 223 237 231 159 237 254 258 263 263 255 239 221 204 203 201 203 199 195 195 196 195 191 188 189 191 191 191 190 189 190 190 189 193 194 193 193 195 195 196 198 202 202 202 201 203 204 205 204 204 209 214 214 215 208 212 206 203 205 209 204 194
208 228 203 184 202 201 197 194 209 217 216 186 206 216 220 220 231 235 242 251 251 231 237 205 206 228 247 251 238 246 247 248 248 248 245 237 221 201 205 204 202 200 198 195 197 197 193 189 188 190 190 189 190 190 192 189 189 192 191 191 192 193 195 197 198 201 201 201 202 202 203 202 201 200 202 206 206 204 197 204 200 203 203 201 198 190
241 217 187 180 200 203 197 199 206 210 233 200 210 214 219 235 252 233 232 192 224 232 231 227 223 223 224 239 229 237 240 241 243 252 249 238 212 205 210 206 202 200 199 197 198 197 194 190 188 189 190 190 190 191 190 190 190 191 190 191 190 192 197 199 199 201 199 198 201 202 202 201 200 199 200 199 196 192 192 194 197 203 201 200 196 192
219 244 197 190 204 193 197 206 210 216 213 232 227 186 213 187 217 225 237 228 218 224 243 229 238 234 230 229 212 206 223 225 230 234 243 237 207 213 213 206 201 197 198 200 199 196 196 195 191 190 191 192 190 188 188 190 189 189 191 193 192 193 196 198 199 200 200 199 199 201 199 198 199 200 199 198 193 189 192 198 196 199 198 195 190 189
185 241 210 181 207 186 199 199 211 201 205 225 236 233 216 227 222 212 213 244 242 238 230 239 237 232 216 236 218 214 207 235 247 264 261 261 235 215 213 206 196 195 198 197 198 196 195 195 194 191 190 190 189 189 190 189 190 193 194 192 195 197 197 197 199 198 199 199 199 196 194 194 195 194 195 192 189 191 195 198 195 188 190 190 184 183
217 201 257 167 198 189 202 197 212 204 193 200 211 223 215 224 227 237 223 218 229 240 242 246 236 232 215 222 227 229 227 234 248 249 253 256 262 239 214 206 196 195 195 197 197 197 196 196 195 194 192 190 188 187 190 190 192 195 193 194 194 195 197 200 201 199 199 197 198 193 190 191 192 193 191 191 190 193 195 191 185 187 190 179 184 181
220 198 225 194 185 205 214 196 216 214 209 201 201 213 215 207 207 214 229 217 228 229 229 238 245 244 207 208 211 223 232 232 240 253 259 261 256 255 237 207 199 195 196 196 198 197 196 194 193 192 190 190 189 188 191 193 193 194 195 196 197 199 201 203 203 201 199 197 194 194 194 193 190 189 191 192 190 195 187 187 187 182 178 182 182 174
225 211 219 224 201 213 217 213 204 224 223 217 206 213 212 224 219 225 225 212 220 231 243 239 250 240 234 208 192 217 227 230 236 245 254 257 259 250 225 211 201 198 194 197 198 198 197 192 190 188 187 189 191 190 189 190 193 194 195 196 197 200 204 206 204 200 198 194 193 193 193 191 190 189 191 191 191 188 187 194 185 178 178 183 175 171
192 227 207 237 239 223 210 223 206 211 225 228 223 220 210 218 217 226 226 225 236 221 228 236 237 241 221 222 182 198 220 234 232 254 262 255 260 249 218 197 191 191 198 200 199 197 193 188 184 181 185 188 189 188 188 190 191 192 194 198 199 203 205 205 203 200 195 194 194 191 190 191 191 191 193 195 192 187 192 194 183 179 183 181 175 176
210 193 226 213 220 227 231 214 211 203 218 227 227 218 221 222 221 228 236 229 237 229 227 230 236 218 216 214 200 256 230 215 217 226 235 247 257 247 217 189 183 185 188 197 197 193 187 183 181 181 182 183 184 186 187 188 190 191 195 199 203 205 205 203 202 200 196 196 195 192 190 190 191 193 196 198 195 191 192 194 189 180 182 182 183 183
217 185 197 216 209 208 206 205 198 202 208 219 229 228 220 222 223 218 223 225 234 232 234 235 234 234 228 193 201 214 216 214 225 244 243 238 253 260 208 172 165 178 184 190 192 191 191 185 177 176 178 178 181 183 183 185 188 192 194 201 204 205 203 201 201 201 197 197 196 193 192 192 194 197 199 198 196 190 189 192 189 180 181 181 180 181
231 223 202 220 225 223 222 221 213 220 202 219 217 226 226 221 227 229 233 232 229 218 235 237 250 242 223 202 202 203 216 229 227 223 234 244 243 246 217 191 175 177 178 186 187 188 183 180 182 180 176 176 179 180 182 184 188 192 194 200 204 205 202 199 199 198 200 199 197 194 194 194 197 198 200 197 193 190 189 195 189 182 181 181 184 185
225 237 212 221 235 244 240 229 221 214 226 217 222 220 224 229 224 230 226 229 236 238 235 227 233 234 235 228 206 215 227 226 231 238 242 245 247 244 221 177 177 176 179 179 186 188 189 186 182 179 178 177 179 180 182 185 188 190 193 197 201 202 200 196 196 197 201 201 201 197 195 198 198 200 199 195 191 194 195 191 184 178 175 182 187 190
226 233 224 225 229 233 238 244 235 227 223 232 223 224 220 221 223 226 232 238 235 232 241 225 217 230 228 233 234 221 224 224 233 234 241 252 258 251 190 194 194 192 181 183 186 192 196 189 185 181 178 179 178 180 182 184 189 192 195 197 198 200 199 194 193 198 199 201 202 201 195 195 201 200 209 206 194 193 190 183 152 133 169 190 194 195
221 233 241 233 238 231 230 232 235 238 230 225 232 228 227 225 225 226 231 231 235 241 245 246 239 229 227 224 234 243 237 242 240 244 245 249 254 247 235 209 213 204 194 190 189 189 197 197 186 180 177 178 180 181 184 186 189 191 192 193 194 195 195 192 194 196 199 201 203 201 201 205 196 208 210 206 198 194 189 153 131 166 196 193 193 189
228 222 232 238 240 239 234 233 237 240 237 232 227 232 234 231 229 226 229 230 232 238 238 240 242 242 228 231 235 238 242 247 248 240 244 242 248 247 232 224 221 217 209 199 190 188 190 195 187 179 179 180 181 182 184 185 186 187 190 189 189 191 192 191 193 195 201 204 201 206 204 213 208 207 200 202 204 200 184 153 155 187 205 197 193 185
209 218 222 252 249 235 225 230 230 234 241 242 235 229 229 232 233 228 227 224 229 231 232 237 237 236 235 232 233 233 235 235 237 230 230 235 239 243 232 229 226 217 213 202 193 186 185 190 186 181 181 180 181 181 181 180 180 180 187 185 188 188 186 192 193 197 201 204 201 199 207 212 207 205 206 203 203 204 196 169 174 194 207 194 181 185
213 219 223 222 242 246 234 224 227 228 234 236 232 231 233 233 236 238 238 231 229 233 233 230 236 238 235 229 230 226 232 231 232 229 234 234 235 238 231 233 232 222 213 200 189 186 188 189 187 183 179 179 181 181 182 176 177 181 182 181 182 181 184 189 194 196 201 201 200 195 199 212 209 205 204 207 206 204 192 178 181 193 204 209 195 182
174 205 219 241 245 247 237 232 239 235 228 227 220 225 225 229 227 232 235 235 231 226 237 239 242 237 227 226 222 229 228 227 221 215 225 231 227 221 233 236 241 236 221 208 199 190 187 187 183 182 179 179 180 180 176 177 177 176 175 173 171 179 183 185 191 196 199 198 197 196 192 199 202 205 201 198 203 198 190 180 187 191 197 198 201 191
207 192 211 211 250 244 230 217 220 228 233 230 248 235 226 229 233 238 239 240 242 235 233 238 239 244 238 226 229 230 228 224 222 225 221 217 221 228 226 226 221 223 215 205 194 186 182 182 180 174 173 179 178 169 167 171 168 163 168 171 173 177 180 185 187 192 195 195 194 192 192 194 194 208 191 178 191 198 201 201 188 187 187 193 205 192
214 218 219 230 241 247 238 218 231 230 241 238 243 299 312 269 242 239 242 238 237 239 237 237 237 238 237 234 232 229 233 234 227 219 225 226 212 218 221 219 210 205 202 196 191 185 177 179 179 172 167 163 162 163 164 167 172 172 169 171 173 174 179 180 186 188 192 193 190 188 186 186 192 204 176 181 199 199 204 205 193 186 185 194 196 190
217 221 226 231 222 258 245 238 250 263 261 252 241 309 313 270 248 244 245 231 230 234 236 234 231 232 230 233 237 238 213 201 229 237 220 218 215 218 223 225 213 200 194 184 181 178 170 166 162 162 159 159 161 163 172 168 167 164 162 167 171 171 174 178 182 187 186 188 181 180 180 186 192 194 178 187 193 198 202 204 199 195 193 194 181 181
203 216 193 222 197 203 229 246 233 222 233 181 29 65 2 346 324 331 294 262 233 232 231 237 234 228 232 235 238 201 156 218 235 242 226 210 196 196 202 219 212 193 188 182 176 165 162 158 158 155 160 160 162 157 155 157 156 152 154 158 161 165 168 174 178 180 179 179 174 173 175 189 207 192 181 183 193 200 205 201 199 193 192 188 177 183
203 208 193 219 218 214 228 254 249 242 233 91 59 8 349 348 318 347 269 249 233 241 232 227 225 221 225 231 216 165 199 221 233 237 219 191 183 183 178 181 181 171 164 163 163 163 164 156 152 149 152 149 143 140 141 143 143 144 147 152 158 163 163 167 167 171 171 169 165 166 170 191 199 199 188 189 196 197 205 198 193 191 188 179 172 176
199 197 196 217 219 214 221 222 233 259 227 63 22 358 346 312 10 243 243 240 256 291 255 231 227 224 219 223 192 192 203 221 225 226 142 156 162 163 166 165 164 160 157 156 155 149 141 134 133 138 143 141 135 135 136 138 142 142 144 147 157 157 151 153 156 157 157 154 155 163 170 185 193 199 198 188 189 193 197 189 191 188 188 186 185 191
200 203 197 214 214 205 209 230 236 244 142 25 4 341 329 303 244 232 232 305 343 316 338 316 256 233 222 210 187 208 205 234 61 91 124 125 129 128 135 141 143 146 142 142 134 135 134 136 137 140 138 133 135 133 134 136 137 138 141 146 150 142 142 144 144 144 142 145 153 163 168 174 186 193 193 189 182 189 193 195 192 184 178 187 192 200
199 202 205 215 218 217 216 227 228 228 110 332 6 343 2 244 230 236 16 313 293 318 312 299 290 268 230 205 196 206 138 123 120 112 118 125 123 125 132 137 135 125 114 109 119 133 133 127 119 116 112 119 124 126 131 134 131 133 140 145 137 135 133 135 138 137 137 141 151 166 169 178 176 182 184 181 172 159 189 199 199 195 191 193 191 195
198 206 205 205 208 220 221 231 224 234 124 12 2 304 103 257 339 344 315 314 317 318 315 313 287 277 240 199 171 136 135 132 127 120 112 114 117 119 122 122 120 118 116 118 116 113 112 106 105 104 110 116 116 122 129 130 130 135 139 128 125 126 131 132 132 135 138 144 149 161 169 167 165 171 181 177 168 172 186 187 192 193 198 201 196 197
188 215 206 207 201 212 208 214 221 125 76 61 52 357 349 320 315 317 316 301 351 329 331 336 307 229 194 152 138 127 120 113 112 116 114 109 106 104 100 99 100 102 106 103 101 100 93 91 95 98 98 99 104 113 120 126 126 127 122 119 124 125 126 130 134 136 137 142 148 159 161 164 169 172 174 159 172 188 188 184 190 187 187 191 201 202
24 299 330 234 182 234 245 238 67 76 81 75 73 73 342 320 314 309 311 332 330 49 21 66 93 135 146 136 124 124 120 116 113 111 108 106 101 98 94 90 88 88 89 90 92 95 99 103 102 101 98 98 103 102 107 114 119 119 116 119 125 126 130 133 136 136 134 141 146 153 157 157 165 172 171 171 186 189 189 188 187 187 183 192 198 199
70 349 220 274 157 86 69 61 74 65 73 82 79 56 22 356 349 341 347 45 65 66 61 74 83 101 112 121 122 117 113 111 107 103 100 96 93 88 87 85 82 84 89 95 98 103 110 112 111 109 107 103 103 106 104 107 113 112 114 121 123 128 131 133 131 131 132 132 140 148 153 160 157 168 175 180 192 196 193 186 188 191 189 196 199 196
55 19 246 223 104 179 177 86 78 74 61 71 68 47 33 7 358 2 10 20 61 79 76 73 82 82 90 88 99 104 103 100 95 92 91 90 88 86 83 79 76 74 74 74 81 96 101 110 112 113 113 109 108 103 101 96 97 105 115 121 130 129 129 126 127 126 128 135 141 143 156 154 166 178 186 194 192 193 197 192 193 194 201 201 199 193
120 343 312 39 159 216 68 68 63 50 60 64 63 46 20 3 3 20 38 50 52 61 64 57 54 61 59 61 62 78 82 80 81 81 81 80 81 81 80 81 82 79 74 74 72 78 82 79 81 89 92 93 92 89 91 95 103 116 125 130 128 126 127 127 128 129 133 136 135 141 153 164 155 182 178 187 194 196 194 197 201 199 205 209 199 197
307 291 44 339 199 97 96 85 83 81 55 49 53 28 356 349 11 27 31 40 50 55 60 60 50 43 37 43 43 49 59 64 69 74 72 67 70 74 77 80 78 76 75 69 64 65 75 82 80 79 82 86 89 93 96 101 111 117 120 121 120 128 127 126 133 131 130 133 136 138 157 173 165 184 175 165 81 57 44 20 360 318 214 41 351 289
304 87 354 235 170 177 150 158 165 153 121 59 62 30 333 335 17 28 30 35 35 45 54 64 59 51 47 41 48 53 54 57 58 61 65 62 59 64 71 75 76 77 76 76 78 77 76 75 83 88 88 88 91 97 104 103 106 120 124 119 125 131 128 133 136 136 134 140 144 152 163 179 172 180 187 152 120 112 82 58 58 30 10 98 37 41
344 7 308 317 279 115 27 139 89 42 65 44 80 95 335 358 10 36 42 40 36 33 49 64 65 56 51 46 45 55 58 58 58 64 68 66 64 63 68 73 79 82 81 82 82 76 74 73 74 80 83 87 93 99 100 101 104 105 106 114 120 128 127 134 137 142 144 153 171 153 165 173 167 168 162 142 146 159 135 144 75 51 43 35 27 23